| time (UTC) | temp C | wind direction | speed KPH | gust KPH | rain 1hr cm | rain 24hr cm | rain mn cm | humidity % | barometer mb |
| 20260504120243 | 7 | 140 | 6.4 | 12.9 | 0.00 | 0.00 | 0.00 | 74 | 1008.6 |
| 20260504120139 | 7 | 189 | 6.4 | 12.9 | 0.00 | 0.00 | 0.00 | 74 | 1008.7 |
| 20260504110713 | 7 | 197 | 4.8 | 14.5 | 0.00 | 0.00 | 0.00 | 70 | 1008.8 |
| 20260504110351 | 7 | 195 | 6.4 | 14.5 | 0.00 | 0.00 | 0.00 | 70 | 1008.8 |
| 20260504100543 | 7 | 261 | 6.4 | 12.9 | 0.00 | 0.00 | 0.00 | 70 | 1008.6 |
| 20260504100436 | 7 | 176 | 4.8 | 12.9 | 0.00 | 0.00 | 0.00 | 70 | 1008.5 |
| 20260504100333 | 7 | 203 | 4.8 | 12.9 | 0.00 | 0.00 | 0.00 | 70 | 1008.5 |
| 20260504100227 | 7 | 178 | 4.8 | 12.9 | 0.00 | 0.00 | 0.00 | 70 | 1008.5 |
| 20260504100124 | 7 | 184 | 4.8 | 12.9 | 0.00 | 0.00 | 0.00 | 70 | 1008.5 |
| 20260504081718 | 7 | 167 | 0.0 | 4.8 | 0.00 | 0.00 | 0.00 | 76 | 1008.9 |
| 20260504081356 | 7 | 167 | 0.0 | 4.8 | 0.00 | 0.00 | 0.00 | 76 | 1008.9 |
| 20260504081253 | 7 | 167 | 0.0 | 4.8 | 0.00 | 0.00 | 0.00 | 76 | 1008.9 |
| 20260504081151 | 7 | 165 | 0.0 | 1.6 | 0.00 | 0.00 | 0.00 | 76 | 1008.9 |
| 20260504081047 | 7 | 165 | 0.0 | 1.6 | 0.00 | 0.00 | 0.00 | 76 | 1009.0 |
| 20260504080719 | 7 | 165 | 1.6 | 4.8 | 0.00 | 0.00 | 0.00 | 76 | 1009.0 |
| 20260504080349 | 8 | 176 | 1.6 | 17.7 | 0.00 | 0.00 | 0.00 | 76 | 1009.1 |
| 20260504080245 | 8 | 177 | 1.6 | 17.7 | 0.00 | 0.00 | 0.00 | 76 | 1009.1 |
| 20260504080141 | 8 | 196 | 4.8 | 17.7 | 0.00 | 0.00 | 0.00 | 75 | 1009.1 |
| 20260504060246 | 7 | 179 | 1.6 | 4.8 | 0.00 | 0.00 | 0.00 | 72 | 1009.2 |
| 20260504060142 | 7 | 177 | 1.6 | 4.8 | 0.00 | 0.00 | 0.00 | 72 | 1009.2 |
| 20260504050657 | 8 | 182 | 1.6 | 4.8 | 0.00 | 0.00 | 0.00 | 71 | 1009.4 |
| 20260504050553 | 8 | 182 | 0.0 | 4.8 | 0.00 | 0.00 | 0.00 | 71 | 1009.3 |
| 20260504050449 | 8 | 182 | 0.0 | 4.8 | 0.00 | 0.00 | 0.00 | 71 | 1009.3 |
| 20260504050347 | 8 | 182 | 0.0 | 4.8 | 0.00 | 0.00 | 0.00 | 71 | 1009.3 |
| 20260504050244 | 8 | 181 | 0.0 | 4.8 | 0.00 | 0.00 | 0.00 | 71 | 1009.3 |
| 20260504050138 | 8 | 182 | 1.6 | 0.0 | 0.00 | 0.00 | 0.00 | 71 | 1009.3 |
| 20260504045928 | 8 | 182 | 1.6 | 6.4 | 0.00 | 0.00 | 0.00 | 71 | 1009.4 |
| 20260504045824 | 8 | 182 | 1.6 | 6.4 | 0.00 | 0.00 | 0.00 | 71 | 1009.3 |
| 20260504045720 | 8 | 182 | 1.6 | 6.4 | 0.00 | 0.00 | 0.00 | 71 | 1009.4 |
| 20260504045614 | 8 | 182 | 1.6 | 6.4 | 0.00 | 0.00 | 0.00 | 71 | 1009.3 |
| 20260504045509 | 8 | 182 | 1.6 | 6.4 | 0.00 | 0.00 | 0.00 | 71 | 1009.3 |
| 20260504045406 | 8 | 180 | 1.6 | 6.4 | 0.00 | 0.00 | 0.00 | 71 | 1009.3 |
| 20260504045301 | 8 | 180 | 1.6 | 6.4 | 0.00 | 0.00 | 0.00 | 71 | 1009.3 |
| 20260504045154 | 8 | 180 | 1.6 | 6.4 | 0.00 | 0.00 | 0.00 | 70 | 1009.4 |
| 20260504045052 | 8 | 182 | 1.6 | 6.4 | 0.00 | 0.00 | 0.00 | 70 | 1009.4 |
| 20260504044949 | 8 | 182 | 1.6 | 4.8 | 0.00 | 0.00 | 0.00 | 70 | 1009.4 |
| 20260504044622 | 8 | 180 | 1.6 | 4.8 | 0.00 | 0.00 | 0.00 | 69 | 1009.5 |
| 20260504044518 | 8 | 180 | 1.6 | 4.8 | 0.00 | 0.00 | 0.00 | 69 | 1009.4 |
| 20260504044413 | 8 | 180 | 1.6 | 4.8 | 0.00 | 0.00 | 0.00 | 69 | 1009.5 |
| 20260504044311 | 8 | 180 | 1.6 | 4.8 | 0.00 | 0.00 | 0.00 | 69 | 1009.5 |
| 20260504044204 | 8 | 180 | 1.6 | 4.8 | 0.00 | 0.00 | 0.00 | 69 | 1009.5 |
| 20260504044056 | 8 | 180 | 1.6 | 4.8 | 0.00 | 0.00 | 0.00 | 69 | 1009.6 |
| 20260504043952 | 8 | 217 | 1.6 | 4.8 | 0.00 | 0.00 | 0.00 | 69 | 1009.6 |
| 20260504043848 | 8 | 217 | 1.6 | 4.8 | 0.00 | 0.00 | 0.00 | 69 | 1009.5 |
| 20260504043742 | 8 | 217 | 1.6 | 4.8 | 0.00 | 0.00 | 0.00 | 69 | 1009.6 |
| 20260504043638 | 8 | 220 | 1.6 | 4.8 | 0.00 | 0.00 | 0.00 | 68 | 1009.6 |
| 20260504043534 | 8 | 220 | 1.6 | 4.8 | 0.00 | 0.00 | 0.00 | 69 | 1009.6 |
| 20260504043429 | 8 | 172 | 1.6 | 4.8 | 0.00 | 0.00 | 0.00 | 68 | 1009.6 |
| 20260504043324 | 8 | 172 | 1.6 | 4.8 | 0.00 | 0.00 | 0.00 | 68 | 1009.6 |
| 20260504042738 | 8 | 173 | 1.6 | 9.7 | 0.00 | 0.00 | 0.00 | 68 | 1009.7 |
| 20260504042152 | 8 | 178 | 4.8 | 9.7 | 0.00 | 0.00 | 0.00 | 69 | 1009.7 |
| 20260504041828 | 8 | 223 | 4.8 | 9.7 | 0.00 | 0.00 | 0.00 | 69 | 1009.8 |
| 20260504041722 | 8 | 223 | 4.8 | 9.7 | 0.00 | 0.00 | 0.00 | 69 | 1009.8 |
| 20260504041617 | 8 | 171 | 4.8 | 9.7 | 0.00 | 0.00 | 0.00 | 69 | 1009.8 |
| 20260504041514 | 8 | 173 | 1.6 | 9.7 | 0.00 | 0.00 | 0.00 | 69 | 1009.9 |
| 20260504041408 | 8 | 170 | 1.6 | 9.7 | 0.00 | 0.00 | 0.00 | 69 | 1009.9 |
| 20260504041302 | 8 | 186 | 1.6 | 9.7 | 0.00 | 0.00 | 0.00 | 69 | 1009.9 |
| 20260504041200 | 8 | 211 | 1.6 | 9.7 | 0.00 | 0.00 | 0.00 | 69 | 1009.9 |
| 20260504041056 | 8 | 186 | 1.6 | 9.7 | 0.00 | 0.00 | 0.00 | 69 | 1009.9 |
| 20260504040954 | 8 | 187 | 1.6 | 9.7 | 0.00 | 0.00 | 0.00 | 69 | 1009.9 |
| 20260504040845 | 8 | 188 | 1.6 | 9.7 | 0.00 | 0.00 | 0.00 | 69 | 1009.9 |
| 20260504040740 | 8 | 190 | 1.6 | 9.7 | 0.00 | 0.00 | 0.00 | 69 | 1009.9 |
| 20260504040637 | 8 | 267 | 1.6 | 9.7 | 0.00 | 0.00 | 0.00 | 69 | 1009.9 |
| 20260504040530 | 8 | 194 | 1.6 | 9.7 | 0.00 | 0.00 | 0.00 | 69 | 1009.9 |
| 20260504040427 | 8 | 190 | 1.6 | 9.7 | 0.00 | 0.00 | 0.00 | 69 | 1009.9 |
| 20260504040325 | 8 | 190 | 1.6 | 9.7 | 0.00 | 0.00 | 0.00 | 69 | 1009.8 |
| 20260504040220 | 8 | 194 | 1.6 | 9.7 | 0.00 | 0.00 | 0.00 | 68 | 1009.8 |
| 20260504040117 | 8 | 198 | 1.6 | 9.7 | 0.00 | 0.00 | 0.00 | 67 | 1009.8 |
| 20260504035751 | 7 | 194 | 1.6 | 9.7 | 0.00 | 0.00 | 0.00 | 69 | 1009.8 |
| 20260504035648 | 7 | 194 | 1.6 | 9.7 | 0.00 | 0.00 | 0.00 | 69 | 1009.7 |
| 20260504035328 | 7 | 200 | 1.6 | 9.7 | 0.00 | 0.00 | 0.00 | 69 | 1009.7 |
| 20260504035002 | 7 | 202 | 1.6 | 9.7 | 0.00 | 0.00 | 0.00 | 69 | 1009.8 |
| 20260504034859 | 7 | 280 | 1.6 | 9.7 | 0.00 | 0.00 | 0.00 | 69 | 1009.8 |
| 20260504034754 | 7 | 281 | 1.6 | 9.7 | 0.00 | 0.00 | 0.00 | 69 | 1009.8 |
| 20260504034650 | 7 | 281 | 1.6 | 9.7 | 0.00 | 0.00 | 0.00 | 69 | 1009.8 |
| 20260504034546 | 7 | 297 | 4.8 | 9.7 | 0.00 | 0.00 | 0.00 | 69 | 1009.9 |
| 20260504034442 | 7 | 297 | 4.8 | 9.7 | 0.00 | 0.00 | 0.00 | 70 | 1009.8 |
| 20260504034114 | 7 | 254 | 1.6 | 9.7 | 0.00 | 0.00 | 0.00 | 71 | 1009.7 |
| 20260504034010 | 6 | 253 | 1.6 | 9.7 | 0.00 | 0.00 | 0.00 | 71 | 1009.7 |
| 20260504033905 | 6 | 257 | 1.6 | 9.7 | 0.00 | 0.00 | 0.00 | 72 | 1009.7 |
| 20260504033801 | 6 | 229 | 1.6 | 9.7 | 0.00 | 0.00 | 0.00 | 72 | 1009.7 |
| 20260504033656 | 6 | 245 | 1.6 | 9.7 | 0.00 | 0.00 | 0.00 | 72 | 1009.7 |
| 20260504033550 | 6 | 267 | 1.6 | 9.7 | 0.00 | 0.00 | 0.00 | 72 | 1009.7 |
| 20260504033446 | 6 | 263 | 1.6 | 9.7 | 0.00 | 0.00 | 0.00 | 72 | 1009.7 |
| 20260504033340 | 6 | 263 | 1.6 | 9.7 | 0.00 | 0.00 | 0.00 | 71 | 1009.7 |
| 20260504033237 | 6 | 296 | 0.0 | 9.7 | 0.00 | 0.00 | 0.00 | 71 | 1009.7 |
| 20260504033131 | 5 | 296 | 1.6 | 9.7 | 0.00 | 0.00 | 0.00 | 71 | 1009.6 |
| 20260504033026 | 5 | 296 | 1.6 | 9.7 | 0.00 | 0.00 | 0.00 | 70 | 1009.6 |
| 20260504032919 | 5 | 292 | 1.6 | 6.4 | 0.00 | 0.00 | 0.00 | 70 | 1009.7 |
| 20260504032555 | 5 | 227 | 0.0 | 9.7 | 0.00 | 0.00 | 0.00 | 70 | 1009.7 |
| 20260504032450 | 5 | 251 | 0.0 | 9.7 | 0.00 | 0.00 | 0.00 | 69 | 1009.6 |
| 20260504032123 | 5 | 250 | 0.0 | 9.7 | 0.00 | 0.00 | 0.00 | 69 | 1009.6 |
| 20260504032021 | 5 | 231 | 0.0 | 9.7 | 0.00 | 0.00 | 0.00 | 68 | 1009.6 |
| 20260504031914 | 5 | 249 | 0.0 | 4.8 | 0.00 | 0.00 | 0.00 | 68 | 1009.7 |
| 20260504031551 | 5 | 248 | 0.0 | 0.0 | 0.00 | 0.00 | 0.00 | 67 | 1009.6 |
| 20260504031449 | 5 | 248 | 0.0 | 6.4 | 0.00 | 0.00 | 0.00 | 67 | 1009.5 |
| 20260504031344 | 5 | 248 | 0.0 | 6.4 | 0.00 | 0.00 | 0.00 | 67 | 1009.5 |
| 20260504031237 | 5 | 248 | 0.0 | 6.4 | 0.00 | 0.00 | 0.00 | 66 | 1009.5 |
| 20260504031133 | 5 | 248 | 0.0 | 6.4 | 0.00 | 0.00 | 0.00 | 66 | 1009.7 |
| 20260504031030 | 5 | 248 | 0.0 | 0.0 | 0.00 | 0.00 | 0.00 | 66 | 1009.6 |
| 20260504030923 | 5 | 248 | 0.0 | 9.7 | 0.00 | 0.00 | 0.00 | 66 | 1009.5 |
| 20260504030815 | 5 | 248 | 0.0 | 9.7 | 0.00 | 0.00 | 0.00 | 65 | 1009.6 |
| 20260504030453 | 5 | 211 | 0.0 | 0.0 | 0.00 | 0.00 | 0.00 | 64 | 1009.5 |
| 20260504030128 | 5 | 211 | 0.0 | 0.0 | 0.00 | 0.00 | 0.00 | 63 | 1009.5 |
| 20260504030022 | 6 | 211 | 0.0 | 0.0 | 0.00 | 0.00 | 0.00 | 62 | 1009.5 |
| 20260504025918 | 6 | 211 | 0.0 | 0.0 | 0.00 | 0.00 | 0.00 | 63 | 1009.5 |
| 20260504025814 | 6 | 211 | 0.0 | 0.0 | 0.00 | 0.00 | 0.00 | 63 | 1009.5 |
| 20260504025706 | 6 | 211 | 0.0 | 0.0 | 0.00 | 0.00 | 0.00 | 64 | 1009.5 |
| 20260504025602 | 6 | 211 | 0.0 | 0.0 | 0.00 | 0.00 | 0.00 | 63 | 1009.6 |
| 20260504025456 | 6 | 211 | 0.0 | 0.0 | 0.00 | 0.00 | 0.00 | 62 | 1009.6 |
| 20260504025348 | 6 | 211 | 0.0 | 0.0 | 0.00 | 0.00 | 0.00 | 62 | 1009.5 |
| 20260504025242 | 6 | 211 | 0.0 | 0.0 | 0.00 | 0.00 | 0.00 | 62 | 1009.6 |
| 20260504025136 | 6 | 211 | 0.0 | 0.0 | 0.00 | 0.00 | 0.00 | 61 | 1009.6 |
| 20260504025031 | 6 | 211 | 0.0 | 0.0 | 0.00 | 0.00 | 0.00 | 61 | 1009.6 |
| 20260504024923 | 7 | 211 | 0.0 | 0.0 | 0.00 | 0.00 | 0.00 | 61 | 1009.5 |
| 20260504024819 | 7 | 211 | 0.0 | 4.8 | 0.00 | 0.00 | 0.00 | 62 | 1009.5 |
| 20260504024715 | 7 | 211 | 0.0 | 4.8 | 0.00 | 0.00 | 0.00 | 60 | 1009.5 |
| 20260504024611 | 7 | 211 | 0.0 | 4.8 | 0.00 | 0.00 | 0.00 | 60 | 1009.5 |
| 20260504024242 | 7 | 211 | 0.0 | 1.6 | 0.00 | 0.00 | 0.00 | 60 | 1009.5 |
| 20260504024137 | 7 | 211 | 0.0 | 0.0 | 0.00 | 0.00 | 0.00 | 60 | 1009.6 |
| 20260504024031 | 7 | 211 | 0.0 | 6.4 | 0.00 | 0.00 | 0.00 | 60 | 1009.5 |
| 20260504023925 | 7 | 211 | 0.0 | 6.4 | 0.00 | 0.00 | 0.00 | 60 | 1009.5 |
| 20260504023603 | 7 | 200 | 0.0 | 1.6 | 0.00 | 0.00 | 0.00 | 59 | 1009.5 |
| 20260504023458 | 7 | 200 | 1.6 | 1.6 | 0.00 | 0.00 | 0.00 | 58 | 1009.5 |
| 20260504023355 | 7 | 200 | 1.6 | 1.6 | 0.00 | 0.00 | 0.00 | 59 | 1009.5 |
| 20260504023252 | 7 | 200 | 1.6 | 1.6 | 0.00 | 0.00 | 0.00 | 58 | 1009.5 |
| 20260504023147 | 7 | 200 | 1.6 | 1.6 | 0.00 | 0.00 | 0.00 | 59 | 1009.5 |
| 20260504023041 | 7 | 200 | 1.6 | 0.0 | 0.00 | 0.00 | 0.00 | 59 | 1009.5 |
| 20260504022716 | 7 | 198 | 4.8 | 14.5 | 0.00 | 0.00 | 0.00 | 59 | 1009.5 |
| 20260504022612 | 7 | 193 | 4.8 | 14.5 | 0.00 | 0.00 | 0.00 | 59 | 1009.5 |
| 20260504022508 | 7 | 216 | 4.8 | 14.5 | 0.00 | 0.00 | 0.00 | 59 | 1009.6 |
| 20260504022407 | 7 | 232 | 4.8 | 14.5 | 0.00 | 0.00 | 0.00 | 59 | 1009.5 |
| 20260504022304 | 7 | 232 | 6.4 | 14.5 | 0.00 | 0.00 | 0.00 | 58 | 1009.6 |
| 20260504022159 | 7 | 231 | 6.4 | 14.5 | 0.00 | 0.00 | 0.00 | 58 | 1009.6 |
| 20260504022052 | 7 | 267 | 6.4 | 14.5 | 0.00 | 0.00 | 0.00 | 59 | 1009.5 |
| 20260504021950 | 7 | 288 | 6.4 | 14.5 | 0.00 | 0.00 | 0.00 | 59 | 1009.5 |
| 20260504021847 | 7 | 248 | 6.4 | 14.5 | 0.00 | 0.00 | 0.00 | 59 | 1009.6 |
| 20260504021739 | 7 | 249 | 6.4 | 14.5 | 0.00 | 0.00 | 0.00 | 59 | 1009.6 |
| 20260504021412 | 6 | 254 | 6.4 | 14.5 | 0.00 | 0.00 | 0.00 | 60 | 1009.6 |
| 20260504021305 | 6 | 285 | 4.8 | 12.9 | 0.00 | 0.00 | 0.00 | 60 | 1009.6 |
| 20260504020937 | 6 | 271 | 4.8 | 12.9 | 0.00 | 0.00 | 0.00 | 60 | 1009.6 |
| 20260504020830 | 6 | 271 | 1.6 | 12.9 | 0.00 | 0.00 | 0.00 | 61 | 1009.6 |
| 20260504020725 | 6 | 225 | 1.6 | 12.9 | 0.00 | 0.00 | 0.00 | 60 | 1009.6 |
| 20260504020359 | 6 | 192 | 0.0 | 12.9 | 0.00 | 0.00 | 0.00 | 61 | 1009.6 |
| 20260504020256 | 6 | 267 | 0.0 | 12.9 | 0.00 | 0.00 | 0.00 | 62 | 1009.6 |
| 20260504015932 | 6 | 221 | 0.0 | 4.8 | 0.00 | 0.00 | 0.00 | 62 | 1009.5 |
| 20260504015825 | 6 | 248 | 0.0 | 1.6 | 0.00 | 0.00 | 0.00 | 61 | 1009.6 |
| 20260504015719 | 6 | 248 | 0.0 | 1.6 | 0.00 | 0.00 | 0.00 | 62 | 1009.6 |
| 20260504015616 | 6 | 248 | 0.0 | 1.6 | 0.00 | 0.00 | 0.00 | 61 | 1009.6 |
| 20260504015510 | 6 | 248 | 0.0 | 1.6 | 0.00 | 0.00 | 0.00 | 61 | 1009.6 |
| 20260504015408 | 6 | 247 | 0.0 | 1.6 | 0.00 | 0.00 | 0.00 | 61 | 1009.7 |
| 20260504015301 | 6 | 247 | 0.0 | 1.6 | 0.00 | 0.00 | 0.00 | 60 | 1009.6 |
| 20260504015159 | 6 | 247 | 0.0 | 1.6 | 0.00 | 0.00 | 0.00 | 59 | 1009.6 |
| 20260504014838 | 6 | 247 | 0.0 | 4.8 | 0.00 | 0.00 | 0.00 | 59 | 1009.6 |
| 20260504014734 | 6 | 247 | 0.0 | 4.8 | 0.00 | 0.00 | 0.00 | 59 | 1009.7 |
| 20260504014632 | 6 | 247 | 0.0 | 1.6 | 0.00 | 0.00 | 0.00 | 59 | 1009.6 |
| 20260504014530 | 6 | 247 | 0.0 | 1.6 | 0.00 | 0.00 | 0.00 | 59 | 1009.6 |
| 20260504014207 | 6 | 246 | 0.0 | 1.6 | 0.00 | 0.00 | 0.00 | 58 | 1009.6 |
| 20260504014100 | 7 | 247 | 0.0 | 1.6 | 0.00 | 0.00 | 0.00 | 57 | 1009.6 |
| 20260504013954 | 7 | 247 | 0.0 | 0.0 | 0.00 | 0.00 | 0.00 | 57 | 1009.6 |
| 20260504013852 | 7 | 247 | 0.0 | 0.0 | 0.00 | 0.00 | 0.00 | 58 | 1009.6 |
| 20260504013748 | 7 | 247 | 0.0 | 4.8 | 0.00 | 0.00 | 0.00 | 57 | 1009.6 |
| 20260504013642 | 7 | 247 | 0.0 | 4.8 | 0.00 | 0.00 | 0.00 | 57 | 1009.7 |
| 20260504013538 | 7 | 246 | 0.0 | 4.8 | 0.00 | 0.00 | 0.00 | 57 | 1009.6 |
| 20260504013435 | 7 | 246 | 0.0 | 4.8 | 0.00 | 0.00 | 0.00 | 56 | 1009.6 |
| 20260504013328 | 7 | 247 | 0.0 | 0.0 | 0.00 | 0.00 | 0.00 | 55 | 1009.6 |
| 20260504013003 | 7 | 240 | 0.0 | 4.8 | 0.00 | 0.00 | 0.00 | 53 | 1009.6 |
| 20260504012857 | 7 | 240 | 0.0 | 4.8 | 0.00 | 0.00 | 0.00 | 53 | 1009.6 |
| 20260504012754 | 7 | 240 | 0.0 | 4.8 | 0.00 | 0.00 | 0.00 | 54 | 1009.6 |
| 20260504012646 | 7 | 240 | 0.0 | 4.8 | 0.00 | 0.00 | 0.00 | 54 | 1009.7 |
| 20260504012055 | 8 | 242 | 0.0 | 6.4 | 0.00 | 0.00 | 0.00 | 52 | 1009.6 |
| 20260504011952 | 8 | 242 | 0.0 | 6.4 | 0.00 | 0.00 | 0.00 | 51 | 1009.6 |
| 20260504011845 | 8 | 242 | 0.0 | 6.4 | 0.00 | 0.00 | 0.00 | 50 | 1009.5 |
| 20260504011741 | 8 | 242 | 0.0 | 6.4 | 0.00 | 0.00 | 0.00 | 50 | 1009.5 |
| 20260504011637 | 8 | 242 | 0.0 | 4.8 | 0.00 | 0.00 | 0.00 | 50 | 1009.5 |
| 20260504011530 | 8 | 242 | 0.0 | 4.8 | 0.00 | 0.00 | 0.00 | 50 | 1009.5 |
| 20260504011424 | 8 | 243 | 0.0 | 4.8 | 0.00 | 0.00 | 0.00 | 49 | 1009.5 |
| 20260504011320 | 9 | 244 | 0.0 | 4.8 | 0.00 | 0.00 | 0.00 | 49 | 1009.6 |
| 20260504010957 | 9 | 244 | 1.6 | 1.6 | 0.00 | 0.00 | 0.00 | 48 | 1009.4 |
| 20260504010852 | 9 | 244 | 1.6 | 0.0 | 0.00 | 0.00 | 0.00 | 47 | 1009.4 |
| 20260504010746 | 9 | 244 | 1.6 | 9.7 | 0.00 | 0.00 | 0.00 | 46 | 1009.4 |
| 20260504010426 | 10 | 244 | 4.8 | 12.9 | 0.00 | 0.00 | 0.00 | 43 | 1009.3 |
| 20260504010324 | 10 | 243 | 4.8 | 12.9 | 0.00 | 0.00 | 0.00 | 43 | 1009.4 |
| 20260504005957 | 10 | 244 | 4.8 | 12.9 | 0.00 | 0.00 | 0.00 | 42 | 1009.3 |
| 20260504005631 | 10 | 251 | 4.8 | 12.9 | 0.00 | 0.00 | 0.00 | 41 | 1009.2 |
| 20260504005523 | 10 | 251 | 4.8 | 12.9 | 0.00 | 0.00 | 0.00 | 41 | 1009.2 |
| 20260504005416 | 10 | 215 | 4.8 | 12.9 | 0.00 | 0.00 | 0.00 | 42 | 1009.2 |
| 20260504005312 | 10 | 254 | 4.8 | 12.9 | 0.00 | 0.00 | 0.00 | 41 | 1009.2 |
| 20260504005209 | 10 | 265 | 4.8 | 12.9 | 0.00 | 0.00 | 0.00 | 42 | 1009.3 |
| 20260504005106 | 10 | 266 | 4.8 | 12.9 | 0.00 | 0.00 | 0.00 | 42 | 1009.2 |
| 20260504005004 | 10 | 265 | 4.8 | 12.9 | 0.00 | 0.00 | 0.00 | 41 | 1009.2 |
| 20260504004857 | 10 | 265 | 4.8 | 12.9 | 0.00 | 0.00 | 0.00 | 41 | 1009.1 |
| 20260504004752 | 10 | 267 | 6.4 | 12.9 | 0.00 | 0.00 | 0.00 | 41 | 1009.1 |
| 20260504004649 | 10 | 313 | 4.8 | 12.9 | 0.00 | 0.00 | 0.00 | 41 | 1009.1 |
| 20260504004545 | 10 | 273 | 4.8 | 14.5 | 0.00 | 0.00 | 0.00 | 41 | 1009.1 |
| 20260504004223 | 10 | 290 | 6.4 | 14.5 | 0.00 | 0.00 | 0.00 | 40 | 1009.0 |
| 20260504004115 | 10 | 216 | 4.8 | 14.5 | 0.00 | 0.00 | 0.00 | 41 | 1009.0 |
| 20260504004009 | 10 | 282 | 4.8 | 14.5 | 0.00 | 0.00 | 0.00 | 40 | 1009.0 |
| 20260504003645 | 10 | 268 | 4.8 | 19.3 | 0.00 | 0.00 | 0.00 | 41 | 1009.1 |
| 20260504003542 | 10 | 288 | 4.8 | 19.3 | 0.00 | 0.00 | 0.00 | 40 | 1009.0 |
| 20260504003438 | 10 | 292 | 4.8 | 19.3 | 0.00 | 0.00 | 0.00 | 40 | 1009.0 |
| 20260504003110 | 10 | 296 | 4.8 | 19.3 | 0.00 | 0.00 | 0.00 | 40 | 1008.9 |
| 20260504003004 | 10 | 296 | 4.8 | 19.3 | 0.00 | 0.00 | 0.00 | 41 | 1009.0 |
| 20260504002633 | 10 | 298 | 4.8 | 20.9 | 0.00 | 0.00 | 0.00 | 41 | 1008.8 |
| 20260504002528 | 10 | 267 | 6.4 | 20.9 | 0.00 | 0.00 | 0.00 | 40 | 1008.9 |
| 20260504002421 | 10 | 221 | 4.8 | 20.9 | 0.00 | 0.00 | 0.00 | 40 | 1008.9 |
| 20260504002316 | 10 | 243 | 4.8 | 20.9 | 0.00 | 0.00 | 0.00 | 40 | 1008.9 |
| 20260504002210 | 10 | 54 | 4.8 | 20.9 | 0.00 | 0.00 | 0.00 | 40 | 1008.8 |
| 20260504002107 | 10 | 218 | 4.8 | 20.9 | 0.00 | 0.00 | 0.00 | 40 | 1008.8 |
| 20260504002004 | 10 | 203 | 4.8 | 20.9 | 0.00 | 0.00 | 0.00 | 40 | 1008.8 |
| 20260504001858 | 10 | 261 | 4.8 | 20.9 | 0.00 | 0.00 | 0.00 | 40 | 1008.8 |
| 20260504001531 | 10 | 248 | 4.8 | 20.9 | 0.00 | 0.00 | 0.00 | 40 | 1008.8 |
| 20260504001425 | 10 | 271 | 4.8 | 20.9 | 0.00 | 0.00 | 0.00 | 40 | 1008.7 |
| 20260504001316 | 11 | 273 | 6.4 | 20.9 | 0.00 | 0.00 | 0.00 | 40 | 1008.7 |
| 20260504001210 | 11 | 202 | 6.4 | 20.9 | 0.00 | 0.00 | 0.00 | 40 | 1008.7 |
| 20260504001107 | 11 | 201 | 6.4 | 20.9 | 0.00 | 0.00 | 0.00 | 40 | 1008.6 |
| 20260504001003 | 11 | 292 | 6.4 | 20.9 | 0.00 | 0.00 | 0.00 | 39 | 1008.6 |
| 20260504000857 | 10 | 289 | 6.4 | 20.9 | 0.00 | 0.00 | 0.00 | 39 | 1008.6 |
| 20260504000749 | 10 | 238 | 6.4 | 20.9 | 0.00 | 0.00 | 0.00 | 39 | 1008.7 |
| 20260504000644 | 10 | 281 | 4.8 | 20.9 | 0.00 | 0.00 | 0.00 | 40 | 1008.6 |
| 20260504000537 | 10 | 244 | 4.8 | 14.5 | 0.00 | 0.00 | 0.00 | 40 | 1008.5 |
| 20260504000434 | 10 | 215 | 6.4 | 14.5 | 0.00 | 0.00 | 0.00 | 40 | 1008.5 |
| 20260504000328 | 11 | 290 | 6.4 | 12.9 | 0.00 | 0.00 | 0.00 | 40 | 1008.5 |
| 20260504000226 | 11 | 255 | 4.8 | 12.9 | 0.00 | 0.00 | 0.00 | 40 | 1008.5 |
| 20260504000117 | 11 | 255 | 4.8 | 12.9 | 0.00 | 0.00 | 0.00 | 40 | 1008.4 |
| 20260503235754 | 11 | 288 | 4.8 | 12.9 | 0.00 | 0.00 | 0.00 | 40 | 1008.4 |
| 20260503235205 | 11 | 259 | 0.0 | 4.8 | 0.00 | 0.00 | 0.00 | 39 | 1008.4 |
| 20260503235058 | 11 | 259 | 0.0 | 4.8 | 0.00 | 0.00 | 0.00 | 38 | 1008.3 |
| 20260503234955 | 11 | 268 | 0.0 | 4.8 | 0.00 | 0.00 | 0.00 | 38 | 1008.3 |
| 20260503234849 | 11 | 271 | 1.6 | 4.8 | 0.00 | 0.00 | 0.00 | 38 | 1008.2 |
| 20260503234746 | 11 | 271 | 1.6 | 4.8 | 0.00 | 0.00 | 0.00 | 38 | 1008.3 |
| 20260503234642 | 11 | 271 | 1.6 | 0.0 | 0.00 | 0.00 | 0.00 | 39 | 1008.2 |
| 20260503234057 | 11 | 264 | 6.4 | 19.3 | 0.00 | 0.00 | 0.00 | 38 | 1008.1 |
| 20260503233951 | 11 | 263 | 6.4 | 19.3 | 0.00 | 0.00 | 0.00 | 38 | 1008.1 |
| 20260503233847 | 11 | 248 | 6.4 | 19.3 | 0.00 | 0.00 | 0.00 | 37 | 1008.1 |
| 20260503233743 | 11 | 302 | 6.4 | 19.3 | 0.00 | 0.00 | 0.00 | 37 | 1008.1 |
| 20260503233637 | 11 | 279 | 6.4 | 19.3 | 0.00 | 0.00 | 0.00 | 37 | 1008.1 |
| 20260503233534 | 11 | 234 | 8.0 | 19.3 | 0.00 | 0.00 | 0.00 | 37 | 1008.1 |
| 20260503233426 | 11 | 297 | 8.0 | 24.1 | 0.00 | 0.00 | 0.00 | 37 | 1008.1 |
| 20260503233323 | 11 | 299 | 8.0 | 24.1 | 0.00 | 0.00 | 0.00 | 37 | 1008.1 |
| 20260503232959 | 11 | 269 | 9.7 | 24.1 | 0.00 | 0.00 | 0.00 | 36 | 1008.1 |
| 20260503232853 | 11 | 287 | 9.7 | 24.1 | 0.00 | 0.00 | 0.00 | 37 | 1008.0 |
| 20260503232750 | 11 | 290 | 9.7 | 24.1 | 0.00 | 0.00 | 0.00 | 36 | 1008.0 |
| 20260503232422 | 11 | 290 | 9.7 | 25.7 | 0.00 | 0.00 | 0.00 | 37 | 1008.0 |
| 20260503232317 | 11 | 278 | 9.7 | 25.7 | 0.00 | 0.00 | 0.00 | 36 | 1008.0 |
| 20260503232211 | 12 | 239 | 9.7 | 25.7 | 0.00 | 0.00 | 0.00 | 36 | 1008.0 |
| 20260503232103 | 12 | 253 | 11.3 | 25.7 | 0.00 | 0.00 | 0.00 | 35 | 1008.0 |
| 20260503231956 | 12 | 288 | 11.3 | 25.7 | 0.00 | 0.00 | 0.00 | 35 | 1007.9 |
| 20260503231851 | 12 | 242 | 11.3 | 25.7 | 0.00 | 0.00 | 0.00 | 35 | 1007.9 |
| 20260503231745 | 12 | 322 | 11.3 | 25.7 | 0.00 | 0.00 | 0.00 | 35 | 1007.9 |
| 20260503231640 | 12 | 313 | 11.3 | 25.7 | 0.00 | 0.00 | 0.00 | 34 | 1007.8 |
| 20260503231535 | 12 | 294 | 11.3 | 25.7 | 0.00 | 0.00 | 0.00 | 34 | 1007.9 |
| 20260503231431 | 12 | 288 | 11.3 | 25.7 | 0.00 | 0.00 | 0.00 | 34 | 1007.8 |
| 20260503231327 | 12 | 323 | 11.3 | 25.7 | 0.00 | 0.00 | 0.00 | 34 | 1007.8 |
| 20260503231224 | 12 | 243 | 11.3 | 25.7 | 0.00 | 0.00 | 0.00 | 34 | 1007.6 |
| 20260503231122 | 12 | 234 | 9.7 | 25.7 | 0.00 | 0.00 | 0.00 | 34 | 1007.8 |
| 20260503231018 | 12 | 248 | 9.7 | 25.7 | 0.00 | 0.00 | 0.00 | 34 | 1007.8 |
| 20260503230218 | 12 | 257 | 9.7 | 20.9 | 0.00 | 0.00 | 0.00 | 33 | 1007.6 |
| 20260503230115 | 12 | 290 | 9.7 | 20.9 | 0.00 | 0.00 | 0.00 | 33 | 1007.6 |
| 20260503230011 | 12 | 230 | 8.0 | 20.9 | 0.00 | 0.00 | 0.00 | 32 | 1007.6 |
| 20260503225906 | 12 | 9 | 8.0 | 20.9 | 0.00 | 0.00 | 0.00 | 32 | 1007.7 |
| 20260503225802 | 12 | 260 | 8.0 | 20.9 | 0.00 | 0.00 | 0.00 | 31 | 1007.6 |
| 20260503225658 | 12 | 247 | 8.0 | 22.5 | 0.00 | 0.00 | 0.00 | 32 | 1007.5 |
| 20260503225552 | 12 | 237 | 8.0 | 22.5 | 0.00 | 0.00 | 0.00 | 31 | 1007.5 |
| 20260503225445 | 12 | 220 | 6.4 | 22.5 | 0.00 | 0.00 | 0.00 | 30 | 1007.6 |
| 20260503225340 | 12 | 261 | 6.4 | 22.5 | 0.00 | 0.00 | 0.00 | 30 | 1007.5 |
| 20260503225235 | 12 | 277 | 6.4 | 22.5 | 0.00 | 0.00 | 0.00 | 30 | 1007.5 |
| 20260503225129 | 12 | 305 | 6.4 | 22.5 | 0.00 | 0.00 | 0.00 | 31 | 1007.4 |
| 20260503225028 | 12 | 305 | 6.4 | 22.5 | 0.00 | 0.00 | 0.00 | 32 | 1007.4 |
| 20260503224923 | 12 | 302 | 6.4 | 22.5 | 0.00 | 0.00 | 0.00 | 29 | 1007.4 |
| 20260503224816 | 12 | 259 | 6.4 | 22.5 | 0.00 | 0.00 | 0.00 | 29 | 1007.6 |
| 20260503224454 | 12 | 58 | 8.0 | 22.5 | 0.00 | 0.00 | 0.00 | 28 | 1007.4 |
| 20260503224349 | 12 | 265 | 8.0 | 22.5 | 0.00 | 0.00 | 0.00 | 27 | 1007.4 |
| 20260503223802 | 13 | 284 | 8.0 | 22.5 | 0.00 | 0.00 | 0.00 | 28 | 1007.4 |
| 20260503223655 | 13 | 259 | 6.4 | 20.9 | 0.00 | 0.00 | 0.00 | 28 | 1007.3 |
| 20260503223552 | 13 | 345 | 6.4 | 19.3 | 0.00 | 0.00 | 0.00 | 28 | 1007.4 |
| 20260503223230 | 13 | 250 | 6.4 | 17.7 | 0.00 | 0.00 | 0.00 | 28 | 1007.3 |
| 20260503222905 | 13 | 275 | 6.4 | 17.7 | 0.00 | 0.00 | 0.00 | 29 | 1007.3 |
| 20260503222757 | 13 | 273 | 6.4 | 17.7 | 0.00 | 0.00 | 0.00 | 28 | 1007.2 |
| 20260503222650 | 13 | 250 | 6.4 | 24.1 | 0.00 | 0.00 | 0.00 | 29 | 1007.3 |
| 20260503222545 | 13 | 269 | 6.4 | 24.1 | 0.00 | 0.00 | 0.00 | 28 | 1007.3 |
| 20260503222440 | 13 | 276 | 6.4 | 24.1 | 0.00 | 0.00 | 0.00 | 27 | 1007.3 |
| 20260503222113 | 13 | 249 | 6.4 | 24.1 | 0.00 | 0.00 | 0.00 | 29 | 1007.4 |
| 20260503221746 | 13 | 127 | 9.7 | 24.1 | 0.00 | 0.00 | 0.00 | 29 | 1007.3 |
| 20260503221639 | 13 | 234 | 9.7 | 24.1 | 0.00 | 0.00 | 0.00 | 29 | 1007.3 |
| 20260503221537 | 13 | 226 | 11.3 | 24.1 | 0.00 | 0.00 | 0.00 | 29 | 1007.4 |
| 20260503221431 | 13 | 294 | 11.3 | 24.1 | 0.00 | 0.00 | 0.00 | 29 | 1007.3 |
| 20260503221327 | 13 | 254 | 11.3 | 24.1 | 0.00 | 0.00 | 0.00 | 30 | 1007.3 |
| 20260503221222 | 13 | 314 | 11.3 | 24.1 | 0.00 | 0.00 | 0.00 | 29 | 1007.3 |
| 20260503221116 | 13 | 314 | 11.3 | 24.1 | 0.00 | 0.00 | 0.00 | 29 | 1007.3 |
| 20260503221009 | 13 | 258 | 11.3 | 24.1 | 0.00 | 0.00 | 0.00 | 29 | 1007.3 |
| 20260503220901 | 13 | 267 | 9.7 | 24.1 | 0.00 | 0.00 | 0.00 | 29 | 1007.4 |
| 20260503220757 | 13 | 254 | 9.7 | 24.1 | 0.00 | 0.00 | 0.00 | 27 | 1007.4 |
| 20260503220650 | 13 | 265 | 9.7 | 20.9 | 0.00 | 0.00 | 0.00 | 29 | 1007.3 |
| 20260503220547 | 13 | 257 | 8.0 | 20.9 | 0.00 | 0.00 | 0.00 | 28 | 1007.3 |
| 20260503220439 | 13 | 259 | 8.0 | 19.3 | 0.00 | 0.00 | 0.00 | 29 | 1007.3 |
| 20260503220332 | 13 | 265 | 6.4 | 14.5 | 0.00 | 0.00 | 0.00 | 28 | 1007.3 |
| 20260503220226 | 13 | 259 | 6.4 | 14.5 | 0.00 | 0.00 | 0.00 | 29 | 1007.3 |
| 20260503220122 | 13 | 282 | 6.4 | 19.3 | 0.00 | 0.00 | 0.00 | 30 | 1007.2 |
| 20260503215540 | 13 | 323 | 6.4 | 19.3 | 0.00 | 0.00 | 0.00 | 33 | 1007.3 |
| 20260503215437 | 13 | 292 | 6.4 | 19.3 | 0.00 | 0.00 | 0.00 | 30 | 1007.2 |
| 20260503215333 | 13 | 286 | 6.4 | 19.3 | 0.00 | 0.00 | 0.00 | 32 | 1007.2 |
| 20260503215228 | 13 | 355 | 6.4 | 19.3 | 0.00 | 0.00 | 0.00 | 33 | 1007.2 |
| 20260503215126 | 13 | 272 | 6.4 | 19.3 | 0.00 | 0.00 | 0.00 | 32 | 1007.3 |
| 20260503215018 | 13 | 219 | 6.4 | 19.3 | 0.00 | 0.00 | 0.00 | 33 | 1007.3 |
| 20260503214913 | 13 | 263 | 8.0 | 19.3 | 0.00 | 0.00 | 0.00 | 33 | 1007.3 |
| 20260503214807 | 13 | 296 | 8.0 | 19.3 | 0.00 | 0.00 | 0.00 | 31 | 1007.2 |
| 20260503214700 | 13 | 281 | 6.4 | 19.3 | 0.00 | 0.00 | 0.00 | 31 | 1007.2 |
| 20260503214557 | 13 | 311 | 6.4 | 19.3 | 0.00 | 0.00 | 0.00 | 34 | 1007.2 |
| 20260503214454 | 13 | 306 | 6.4 | 19.3 | 0.00 | 0.00 | 0.00 | 32 | 1007.2 |
| 20260503214347 | 13 | 331 | 6.4 | 19.3 | 0.00 | 0.00 | 0.00 | 35 | 1007.2 |
| 20260503214243 | 13 | 284 | 6.4 | 19.3 | 0.00 | 0.00 | 0.00 | 32 | 1007.3 |
| 20260503214137 | 13 | 265 | 4.8 | 19.3 | 0.00 | 0.00 | 0.00 | 32 | 1007.3 |
| 20260503214034 | 13 | 322 | 4.8 | 14.5 | 0.00 | 0.00 | 0.00 | 34 | 1007.3 |
| 20260503213928 | 13 | 215 | 1.6 | 12.9 | 0.00 | 0.00 | 0.00 | 35 | 1007.3 |
| 20260503213823 | 13 | 263 | 1.6 | 12.9 | 0.00 | 0.00 | 0.00 | 35 | 1007.3 |
| 20260503213717 | 12 | 267 | 0.0 | 9.7 | 0.00 | 0.00 | 0.00 | 35 | 1007.2 |
| 20260503213611 | 12 | 273 | 1.6 | 9.7 | 0.00 | 0.00 | 0.00 | 35 | 1007.2 |
| 20260503213506 | 12 | 273 | 1.6 | 9.7 | 0.00 | 0.00 | 0.00 | 34 | 1007.3 |
| 20260503213403 | 12 | 271 | 0.0 | 9.7 | 0.00 | 0.00 | 0.00 | 34 | 1007.2 |
| 20260503213257 | 12 | 275 | 1.6 | 9.7 | 0.00 | 0.00 | 0.00 | 34 | 1007.3 |
| 20260503213151 | 12 | 277 | 1.6 | 9.7 | 0.00 | 0.00 | 0.00 | 35 | 1007.2 |
| 20260503212831 | 12 | 283 | 1.6 | 9.7 | 0.00 | 0.00 | 0.00 | 33 | 1007.3 |
| 20260503212729 | 12 | 283 | 4.8 | 9.7 | 0.00 | 0.00 | 0.00 | 34 | 1007.3 |
| 20260503212628 | 12 | 283 | 4.8 | 9.7 | 0.00 | 0.00 | 0.00 | 34 | 1007.3 |
| 20260503212521 | 12 | 275 | 4.8 | 9.7 | 0.00 | 0.00 | 0.00 | 33 | 1007.3 |
| 20260503212417 | 12 | 276 | 4.8 | 9.7 | 0.00 | 0.00 | 0.00 | 34 | 1007.3 |
| 20260503212313 | 13 | 275 | 4.8 | 9.7 | 0.00 | 0.00 | 0.00 | 35 | 1007.4 |
| 20260503211949 | 13 | 259 | 4.8 | 9.7 | 0.00 | 0.00 | 0.00 | 35 | 1007.4 |
| 20260503211847 | 12 | 265 | 4.8 | 9.7 | 0.00 | 0.00 | 0.00 | 36 | 1007.4 |
| 20260503211744 | 12 | 269 | 1.6 | 9.7 | 0.00 | 0.00 | 0.00 | 36 | 1007.3 |
| 20260503211639 | 12 | 0 | 1.6 | 9.7 | 0.00 | 0.00 | 0.00 | 34 | 1007.3 |
| 20260503211535 | 12 | 27 | 1.6 | 9.7 | 0.00 | 0.00 | 0.00 | 38 | 1007.2 |
| 20260503211432 | 12 | 69 | 1.6 | 6.4 | 0.00 | 0.00 | 0.00 | 35 | 1007.3 |
| 20260503211330 | 12 | 331 | 1.6 | 22.5 | 0.00 | 0.00 | 0.00 | 34 | 1007.4 |
| 20260503211225 | 12 | 323 | 1.6 | 22.5 | 0.00 | 0.00 | 0.00 | 36 | 1007.5 |
| 20260503210859 | 12 | 11 | 1.6 | 22.5 | 0.00 | 0.00 | 0.00 | 36 | 1007.4 |
| 20260503210756 | 12 | 333 | 4.8 | 22.5 | 0.00 | 0.00 | 0.00 | 40 | 1007.4 |
| 20260503210652 | 12 | 333 | 4.8 | 22.5 | 0.00 | 0.00 | 0.00 | 39 | 1007.3 |
| 20260503210547 | 12 | 331 | 4.8 | 22.5 | 0.00 | 0.00 | 0.00 | 34 | 1007.4 |
| 20260503210442 | 12 | 327 | 4.8 | 22.5 | 0.00 | 0.00 | 0.00 | 35 | 1007.4 |
| 20260503210335 | 12 | 342 | 6.4 | 22.5 | 0.00 | 0.00 | 0.00 | 35 | 1007.4 |
| 20260503210229 | 12 | 298 | 6.4 | 22.5 | 0.00 | 0.00 | 0.00 | 35 | 1007.5 |
| 20260503210124 | 12 | 259 | 6.4 | 22.5 | 0.00 | 0.00 | 0.00 | 35 | 1007.5 |
| 20260503210021 | 12 | 268 | 6.4 | 22.5 | 0.00 | 0.00 | 0.00 | 34 | 1007.5 |
| 20260503205914 | 12 | 292 | 6.4 | 22.5 | 0.00 | 0.00 | 0.00 | 36 | 1007.5 |
| 20260503205325 | 13 | 246 | 1.6 | 17.7 | 0.00 | 0.00 | 0.00 | 35 | 1007.6 |
| 20260503205220 | 13 | 264 | 1.6 | 12.9 | 0.00 | 0.00 | 0.00 | 37 | 1007.5 |
| 20260503205113 | 13 | 263 | 4.8 | 12.9 | 0.00 | 0.00 | 0.00 | 38 | 1007.5 |
| 20260503205010 | 13 | 263 | 4.8 | 12.9 | 0.00 | 0.00 | 0.00 | 33 | 1007.6 |
| 20260503204903 | 13 | 263 | 4.8 | 12.9 | 0.00 | 0.00 | 0.00 | 35 | 1007.6 |
| 20260503204759 | 13 | 300 | 6.4 | 12.9 | 0.00 | 0.00 | 0.00 | 35 | 1007.6 |
| 20260503204654 | 13 | 287 | 6.4 | 12.9 | 0.00 | 0.00 | 0.00 | 37 | 1007.6 |
| 20260503204549 | 13 | 285 | 6.4 | 12.9 | 0.00 | 0.00 | 0.00 | 37 | 1007.6 |
| 20260503204225 | 13 | 263 | 6.4 | 12.9 | 0.00 | 0.00 | 0.00 | 35 | 1007.6 |
| 20260503204118 | 13 | 315 | 6.4 | 12.9 | 0.00 | 0.00 | 0.00 | 36 | 1007.6 |
| 20260503203536 | 13 | 298 | 1.6 | 12.9 | 0.00 | 0.00 | 0.00 | 35 | 1007.7 |
| 20260503203434 | 13 | 327 | 1.6 | 9.7 | 0.00 | 0.00 | 0.00 | 37 | 1007.7 |
| 20260503203329 | 13 | 323 | 1.6 | 9.7 | 0.00 | 0.00 | 0.00 | 41 | 1007.8 |
| 20260503203222 | 13 | 306 | 1.6 | 9.7 | 0.00 | 0.00 | 0.00 | 36 | 1007.7 |
| 20260503202855 | 12 | 0 | 1.6 | 9.7 | 0.00 | 0.00 | 0.00 | 38 | 1007.8 |
| 20260503202752 | 12 | 5 | 4.8 | 9.7 | 0.00 | 0.00 | 0.00 | 40 | 1007.7 |
| 20260503202427 | 12 | 242 | 4.8 | 14.5 | 0.00 | 0.00 | 0.00 | 35 | 1007.7 |
| 20260503202323 | 12 | 242 | 4.8 | 14.5 | 0.00 | 0.00 | 0.00 | 36 | 1007.8 |
| 20260503202217 | 12 | 309 | 4.8 | 14.5 | 0.00 | 0.00 | 0.00 | 36 | 1007.9 |
| 20260503202111 | 12 | 315 | 4.8 | 14.5 | 0.00 | 0.00 | 0.00 | 35 | 1007.8 |
| 20260503202006 | 12 | 315 | 4.8 | 14.5 | 0.00 | 0.00 | 0.00 | 36 | 1007.8 |
| 20260503201900 | 12 | 0 | 4.8 | 14.5 | 0.00 | 0.00 | 0.00 | 39 | 1007.8 |
| 20260503201755 | 12 | 332 | 4.8 | 14.5 | 0.00 | 0.00 | 0.00 | 39 | 1007.9 |
| 20260503201653 | 12 | 332 | 4.8 | 14.5 | 0.00 | 0.00 | 0.00 | 40 | 1007.9 |
| 20260503200846 | 12 | 332 | 4.8 | 14.5 | 0.00 | 0.00 | 0.00 | 38 | 1008.0 |
| 20260503200517 | 12 | 307 | 6.4 | 14.5 | 0.00 | 0.00 | 0.00 | 37 | 1008.0 |
| 20260503200415 | 12 | 305 | 6.4 | 14.5 | 0.00 | 0.00 | 0.00 | 37 | 1008.1 |
| 20260503200048 | 12 | 355 | 4.8 | 14.5 | 0.00 | 0.00 | 0.00 | 41 | 1008.0 |
| 20260503195944 | 12 | 117 | 4.8 | 14.5 | 0.00 | 0.00 | 0.00 | 40 | 1008.0 |
| 20260503195840 | 12 | 259 | 4.8 | 14.5 | 0.00 | 0.00 | 0.00 | 41 | 1008.0 |
| 20260503195734 | 12 | 246 | 6.4 | 25.7 | 0.00 | 0.00 | 0.00 | 37 | 1008.0 |
| 20260503195627 | 12 | 269 | 4.8 | 25.7 | 0.00 | 0.00 | 0.00 | 41 | 1008.1 |
| 20260503195301 | 12 | 278 | 6.4 | 25.7 | 0.00 | 0.00 | 0.00 | 42 | 1008.1 |
| 20260503195158 | 12 | 351 | 6.4 | 25.7 | 0.00 | 0.00 | 0.00 | 39 | 1008.1 |
| 20260503195055 | 12 | 355 | 8.0 | 25.7 | 0.00 | 0.00 | 0.00 | 37 | 1008.1 |
| 20260503194953 | 12 | 355 | 9.7 | 25.7 | 0.00 | 0.00 | 0.00 | 38 | 1008.2 |
| 20260503194629 | 12 | 294 | 12.9 | 25.7 | 0.00 | 0.00 | 0.00 | 39 | 1008.2 |
| 20260503194304 | 12 | 261 | 14.5 | 25.7 | 0.00 | 0.00 | 0.00 | 37 | 1008.3 |
| 20260503194159 | 12 | 306 | 12.9 | 25.7 | 0.00 | 0.00 | 0.00 | 37 | 1008.4 |
| 20260503194053 | 12 | 264 | 12.9 | 25.7 | 0.00 | 0.00 | 0.00 | 38 | 1008.3 |
| 20260503193949 | 12 | 273 | 11.3 | 25.7 | 0.00 | 0.00 | 0.00 | 40 | 1008.3 |
| 20260503193845 | 12 | 233 | 9.7 | 25.7 | 0.00 | 0.00 | 0.00 | 40 | 1008.3 |
| 20260503193518 | 11 | 325 | 8.0 | 20.9 | 0.00 | 0.00 | 0.00 | 39 | 1008.4 |
| 20260503193416 | 11 | 263 | 8.0 | 20.9 | 0.00 | 0.00 | 0.00 | 40 | 1008.5 |
| 20260503193310 | 11 | 241 | 8.0 | 20.9 | 0.00 | 0.00 | 0.00 | 40 | 1008.5 |
| 20260503193208 | 11 | 290 | 8.0 | 20.9 | 0.00 | 0.00 | 0.00 | 44 | 1008.6 |
| 20260503193105 | 11 | 325 | 6.4 | 22.5 | 0.00 | 0.00 | 0.00 | 43 | 1008.5 |
| 20260503193000 | 11 | 5 | 6.4 | 22.5 | 0.00 | 0.00 | 0.00 | 41 | 1008.4 |
| 20260503192853 | 11 | 338 | 6.4 | 22.5 | 0.00 | 0.00 | 0.00 | 41 | 1008.4 |
| 20260503192749 | 11 | 265 | 6.4 | 22.5 | 0.00 | 0.00 | 0.00 | 39 | 1008.6 |
| 20260503192647 | 11 | 312 | 4.8 | 22.5 | 0.00 | 0.00 | 0.00 | 38 | 1008.6 |
| 20260503192543 | 11 | 327 | 6.4 | 22.5 | 0.00 | 0.00 | 0.00 | 39 | 1008.5 |
| 20260503192436 | 11 | 284 | 6.4 | 22.5 | 0.00 | 0.00 | 0.00 | 39 | 1008.6 |
| 20260503192331 | 11 | 333 | 4.8 | 22.5 | 0.00 | 0.00 | 0.00 | 39 | 1008.5 |
| 20260503192228 | 11 | 337 | 6.4 | 22.5 | 0.00 | 0.00 | 0.00 | 41 | 1008.6 |
| 20260503192122 | 11 | 288 | 6.4 | 22.5 | 0.00 | 0.00 | 0.00 | 40 | 1008.5 |
| 20260503192020 | 11 | 346 | 8.0 | 29.0 | 0.00 | 0.00 | 0.00 | 42 | 1008.6 |
| 20260503191913 | 11 | 321 | 8.0 | 29.0 | 0.00 | 0.00 | 0.00 | 41 | 1008.5 |
| 20260503191549 | 11 | 306 | 8.0 | 29.0 | 0.00 | 0.00 | 0.00 | 41 | 1008.6 |
| 20260503191443 | 11 | 261 | 8.0 | 29.0 | 0.00 | 0.00 | 0.00 | 41 | 1008.6 |
| 20260503191115 | 11 | 290 | 9.7 | 29.0 | 0.00 | 0.00 | 0.00 | 41 | 1008.6 |
| 20260503191008 | 11 | 294 | 9.7 | 29.0 | 0.00 | 0.00 | 0.00 | 40 | 1008.7 |
| 20260503190905 | 11 | 306 | 9.7 | 29.0 | 0.00 | 0.00 | 0.00 | 40 | 1008.7 |
| 20260503190759 | 11 | 342 | 11.3 | 29.0 | 0.00 | 0.00 | 0.00 | 41 | 1008.8 |
| 20260503190655 | 11 | 337 | 11.3 | 29.0 | 0.00 | 0.00 | 0.00 | 41 | 1008.8 |
| 20260503190553 | 11 | 285 | 11.3 | 29.0 | 0.00 | 0.00 | 0.00 | 39 | 1008.7 |
| 20260503190446 | 11 | 269 | 11.3 | 29.0 | 0.00 | 0.00 | 0.00 | 40 | 1008.8 |
| 20260503190340 | 11 | 269 | 11.3 | 29.0 | 0.00 | 0.00 | 0.00 | 39 | 1008.7 |
| 20260503190021 | 11 | 263 | 11.3 | 27.4 | 0.00 | 0.00 | 0.00 | 42 | 1008.8 |
| 20260503185917 | 11 | 230 | 11.3 | 27.4 | 0.00 | 0.00 | 0.00 | 41 | 1008.8 |
| 20260503185810 | 11 | 261 | 11.3 | 27.4 | 0.00 | 0.00 | 0.00 | 41 | 1008.9 |
| 20260503185445 | 11 | 258 | 11.3 | 27.4 | 0.00 | 0.00 | 0.00 | 41 | 1008.9 |
| 20260503185338 | 10 | 280 | 11.3 | 27.4 | 0.00 | 0.00 | 0.00 | 40 | 1008.9 |
| 20260503185233 | 10 | 263 | 9.7 | 27.4 | 0.00 | 0.00 | 0.00 | 42 | 1009.0 |
| 20260503185126 | 10 | 258 | 8.0 | 25.7 | 0.00 | 0.00 | 0.00 | 42 | 1009.0 |
| 20260503185020 | 10 | 276 | 8.0 | 25.7 | 0.00 | 0.00 | 0.00 | 40 | 1009.0 |
| 20260503184657 | 11 | 267 | 4.8 | 25.7 | 0.00 | 0.00 | 0.00 | 42 | 1009.0 |
| 20260503184552 | 11 | 298 | 4.8 | 25.7 | 0.00 | 0.00 | 0.00 | 41 | 1009.0 |
| 20260503184230 | 10 | 267 | 1.6 | 17.7 | 0.00 | 0.00 | 0.00 | 43 | 1008.9 |
| 20260503184128 | 10 | 0 | 1.6 | 17.7 | 0.00 | 0.00 | 0.00 | 46 | 1008.9 |
| 20260503184022 | 10 | 266 | 4.8 | 17.7 | 0.00 | 0.00 | 0.00 | 44 | 1008.9 |
| 20260503183914 | 10 | 266 | 4.8 | 17.7 | 0.00 | 0.00 | 0.00 | 43 | 1009.0 |
| 20260503183812 | 10 | 296 | 4.8 | 17.7 | 0.00 | 0.00 | 0.00 | 43 | 1009.0 |
| 20260503183706 | 10 | 297 | 6.4 | 19.3 | 0.00 | 0.00 | 0.00 | 43 | 1009.0 |
| 20260503183559 | 10 | 229 | 4.8 | 19.3 | 0.00 | 0.00 | 0.00 | 42 | 1009.1 |
| 20260503183452 | 10 | 344 | 4.8 | 19.3 | 0.00 | 0.00 | 0.00 | 45 | 1009.0 |
| 20260503183345 | 10 | 298 | 4.8 | 19.3 | 0.00 | 0.00 | 0.00 | 43 | 1009.0 |
| 20260503183238 | 10 | 324 | 4.8 | 19.3 | 0.00 | 0.00 | 0.00 | 45 | 1009.0 |
| 20260503182913 | 10 | 263 | 6.4 | 19.3 | 0.00 | 0.00 | 0.00 | 44 | 1009.0 |
| 20260503182810 | 10 | 309 | 6.4 | 19.3 | 0.00 | 0.00 | 0.00 | 45 | 1009.0 |
| 20260503182703 | 10 | 271 | 8.0 | 19.3 | 0.00 | 0.00 | 0.00 | 43 | 1009.1 |
| 20260503182557 | 10 | 269 | 8.0 | 19.3 | 0.00 | 0.00 | 0.00 | 44 | 1009.1 |
| 20260503182455 | 10 | 284 | 8.0 | 19.3 | 0.00 | 0.00 | 0.00 | 43 | 1009.0 |
| 20260503182351 | 10 | 283 | 9.7 | 19.3 | 0.00 | 0.00 | 0.00 | 43 | 1009.0 |
| 20260503182246 | 10 | 277 | 8.0 | 19.3 | 0.00 | 0.00 | 0.00 | 43 | 1009.1 |
| 20260503182144 | 10 | 245 | 8.0 | 19.3 | 0.00 | 0.00 | 0.00 | 43 | 1009.1 |
| 20260503181816 | 10 | 145 | 6.4 | 19.3 | 0.00 | 0.00 | 0.00 | 44 | 1009.1 |
| 20260503181711 | 10 | 297 | 4.8 | 14.5 | 0.00 | 0.00 | 0.00 | 45 | 1009.2 |
| 20260503181343 | 10 | 277 | 1.6 | 9.7 | 0.00 | 0.00 | 0.00 | 47 | 1009.2 |
| 20260503181239 | 10 | 326 | 0.0 | 9.7 | 0.00 | 0.00 | 0.00 | 44 | 1009.1 |
| 20260503181130 | 10 | 324 | 0.0 | 9.7 | 0.00 | 0.00 | 0.00 | 47 | 1009.2 |
| 20260503181028 | 10 | 326 | 0.0 | 9.7 | 0.00 | 0.00 | 0.00 | 47 | 1009.2 |
| 20260503180926 | 10 | 324 | 0.0 | 4.8 | 0.00 | 0.00 | 0.00 | 47 | 1009.2 |
| 20260503180824 | 10 | 323 | 1.6 | 14.5 | 0.00 | 0.00 | 0.00 | 45 | 1009.2 |
| 20260503180718 | 10 | 323 | 1.6 | 14.5 | 0.00 | 0.00 | 0.00 | 44 | 1009.2 |
| 20260503180612 | 10 | 326 | 1.6 | 14.5 | 0.00 | 0.00 | 0.00 | 45 | 1009.2 |
| 20260503180508 | 10 | 331 | 1.6 | 14.5 | 0.00 | 0.00 | 0.00 | 46 | 1009.3 |
| 20260503180139 | 10 | 345 | 4.8 | 14.5 | 0.00 | 0.00 | 0.00 | 47 | 1009.3 |
| 20260503175342 | 10 | 285 | 6.4 | 14.5 | 0.00 | 0.00 | 0.00 | 44 | 1009.4 |
| 20260503175237 | 10 | 278 | 4.8 | 14.5 | 0.00 | 0.00 | 0.00 | 45 | 1009.3 |
| 20260503175130 | 10 | 257 | 4.8 | 14.5 | 0.00 | 0.00 | 0.00 | 43 | 1009.3 |
| 20260503175027 | 10 | 273 | 4.8 | 14.5 | 0.00 | 0.00 | 0.00 | 43 | 1009.3 |
| 20260503174922 | 10 | 275 | 4.8 | 14.5 | 0.00 | 0.00 | 0.00 | 44 | 1009.4 |
| 20260503174818 | 10 | 304 | 4.8 | 17.7 | 0.00 | 0.00 | 0.00 | 44 | 1009.4 |
| 20260503174714 | 10 | 273 | 4.8 | 17.7 | 0.00 | 0.00 | 0.00 | 44 | 1009.3 |
| 20260503174612 | 10 | 316 | 4.8 | 17.7 | 0.00 | 0.00 | 0.00 | 46 | 1009.4 |
| 20260503174510 | 9 | 21 | 6.4 | 17.7 | 0.00 | 0.00 | 0.00 | 44 | 1009.3 |
| 20260503174404 | 9 | 22 | 6.4 | 17.7 | 0.00 | 0.00 | 0.00 | 46 | 1009.4 |
| 20260503174300 | 9 | 293 | 6.4 | 17.7 | 0.00 | 0.00 | 0.00 | 44 | 1009.5 |
| 20260503174153 | 9 | 263 | 6.4 | 17.7 | 0.00 | 0.00 | 0.00 | 45 | 1009.4 |
| 20260503174051 | 9 | 280 | 6.4 | 17.7 | 0.00 | 0.00 | 0.00 | 45 | 1009.4 |
| 20260503173723 | 9 | 298 | 6.4 | 20.9 | 0.00 | 0.00 | 0.00 | 45 | 1009.4 |
| 20260503173620 | 9 | 242 | 6.4 | 20.9 | 0.00 | 0.00 | 0.00 | 44 | 1009.5 |
| 20260503173512 | 9 | 26 | 6.4 | 20.9 | 0.00 | 0.00 | 0.00 | 44 | 1009.4 |
| 20260503173407 | 9 | 344 | 6.4 | 20.9 | 0.00 | 0.00 | 0.00 | 45 | 1009.4 |
| 20260503173041 | 9 | 287 | 8.0 | 20.9 | 0.00 | 0.00 | 0.00 | 45 | 1009.5 |
| 20260503172935 | 9 | 319 | 8.0 | 20.9 | 0.00 | 0.00 | 0.00 | 44 | 1009.5 |
| 20260503172831 | 9 | 286 | 8.0 | 20.9 | 0.00 | 0.00 | 0.00 | 45 | 1009.6 |
| 20260503172726 | 9 | 280 | 8.0 | 24.1 | 0.00 | 0.00 | 0.00 | 45 | 1009.5 |
| 20260503172357 | 9 | 309 | 11.3 | 24.1 | 0.00 | 0.00 | 0.00 | 43 | 1009.6 |
| 20260503172249 | 9 | 290 | 11.3 | 24.1 | 0.00 | 0.00 | 0.00 | 44 | 1009.6 |
| 20260503172144 | 9 | 222 | 11.3 | 24.1 | 0.00 | 0.00 | 0.00 | 45 | 1009.5 |
| 20260503172041 | 9 | 277 | 9.7 | 24.1 | 0.00 | 0.00 | 0.00 | 46 | 1009.5 |
| 20260503171936 | 9 | 306 | 11.3 | 24.1 | 0.00 | 0.00 | 0.00 | 43 | 1009.5 |
| 20260503171832 | 9 | 270 | 11.3 | 24.1 | 0.00 | 0.00 | 0.00 | 44 | 1009.4 |
| 20260503171725 | 9 | 245 | 11.3 | 24.1 | 0.00 | 0.00 | 0.00 | 44 | 1009.5 |
| 20260503171621 | 9 | 243 | 11.3 | 24.1 | 0.00 | 0.00 | 0.00 | 43 | 1009.4 |
| 20260503171514 | 9 | 254 | 9.7 | 24.1 | 0.00 | 0.00 | 0.00 | 44 | 1009.5 |
| 20260503171411 | 9 | 251 | 8.0 | 24.1 | 0.00 | 0.00 | 0.00 | 44 | 1009.5 |
| 20260503171308 | 9 | 245 | 9.7 | 24.1 | 0.00 | 0.00 | 0.00 | 44 | 1009.5 |
| 20260503170942 | 9 | 298 | 6.4 | 24.1 | 0.00 | 0.00 | 0.00 | 44 | 1009.5 |
| 20260503170619 | 9 | 320 | 4.8 | 17.7 | 0.00 | 0.00 | 0.00 | 43 | 1009.5 |
| 20260503170513 | 9 | 321 | 4.8 | 17.7 | 0.00 | 0.00 | 0.00 | 45 | 1009.5 |
| 20260503170147 | 9 | 326 | 0.0 | 6.4 | 0.00 | 0.00 | 0.00 | 45 | 1009.5 |
| 20260503160153 | 9 | 253 | 8.0 | 25.7 | 0.00 | 0.00 | 0.00 | 46 | 1009.6 |
| 20260503150950 | 9 | 274 | 9.7 | 30.6 | 0.00 | 0.00 | 0.00 | 43 | 1009.8 |
| 20260503150625 | 9 | 0 | 6.4 | 22.5 | 0.00 | 0.00 | 0.00 | 43 | 1009.8 |
| 20260503150518 | 9 | 317 | 6.4 | 22.5 | 0.00 | 0.00 | 0.00 | 43 | 1009.8 |
| 20260503150411 | 9 | 269 | 6.4 | 22.5 | 0.00 | 0.00 | 0.00 | 41 | 1009.9 |
| 20260503150306 | 9 | 263 | 4.8 | 22.5 | 0.00 | 0.00 | 0.00 | 41 | 1009.8 |
| 20260503150200 | 9 | 284 | 4.8 | 22.5 | 0.00 | 0.00 | 0.00 | 42 | 1009.9 |
| 20260503140249 | 8 | 336 | 6.4 | 14.5 | 0.00 | 0.00 | 0.00 | 50 | 1010.0 |
| 20260503140142 | 8 | 334 | 6.4 | 14.5 | 0.00 | 0.00 | 0.00 | 51 | 1010.1 |
| 20260503131403 | 7 | 273 | 4.8 | 12.9 | 0.00 | 0.00 | 0.00 | 62 | 1010.4 |
| 20260503131257 | 7 | 355 | 4.8 | 12.9 | 0.00 | 0.00 | 0.00 | 62 | 1010.4 |
| 20260503131153 | 7 | 355 | 4.8 | 14.5 | 0.00 | 0.00 | 0.00 | 61 | 1010.4 |
| 20260503130830 | 7 | 310 | 1.6 | 14.5 | 0.00 | 0.00 | 0.00 | 61 | 1010.4 |
| 20260503130724 | 7 | 43 | 1.6 | 14.5 | 0.00 | 0.00 | 0.00 | 61 | 1010.4 |
| 20260503130617 | 7 | 303 | 1.6 | 14.5 | 0.00 | 0.00 | 0.00 | 62 | 1010.4 |
| 20260503130514 | 7 | 305 | 0.0 | 14.5 | 0.00 | 0.00 | 0.00 | 64 | 1010.4 |
| 20260503130149 | 7 | 304 | 1.6 | 14.5 | 0.00 | 0.00 | 0.00 | 62 | 1010.3 |